K4VI Weather Reports


Display with metric or nautical units.
time (UTC)temp
F
wind
direction
speed
MPH
gust
MPH
rain 1hr
in
rain 24hr
in
rain mn
in
humidity
%
barometer
mb
20260510021003 54 84 3.0 9.0 0.00 0.00 0.00 33 1033.3
20260510020503 54 84 2.0 7.0 0.00 0.00 0.00 32 1033.2
20260510020003 55 95 2.0 4.0 0.00 0.00 0.00 31 1033.3
20260510015503 56 104 2.0 6.0 0.00 0.00 0.00 29 1033.2
20260510015003 56 82 1.0 6.0 0.00 0.00 0.00 27 1033.2
20260510014503 57 321 1.0 2.0 0.00 0.00 0.00 21 1033.2
20260510014003 57 318 1.0 4.0 0.00 0.00 0.00 21 1033.0
20260510013503 57 315 1.0 4.0 0.00 0.00 0.00 21 1032.9
20260510013219 57 308 1.0 4.0 0.00 0.00 0.00 22 1032.8
20260510012503 58 300 1.0 2.0 0.00 0.00 0.00 21 1032.7
20260510012003 58 303 1.0 3.0 0.00 0.00 0.00 21 1032.7
20260510011503 58 311 2.0 5.0 0.00 0.00 0.00 20 1032.6
20260510011221 58 314 2.0 5.0 0.00 0.00 0.00 20 1032.5
20260510010503 59 316 3.0 5.0 0.00 0.00 0.00 19 1032.5
20260510010217 59 315 3.0 8.0 0.00 0.00 0.00 19 1032.4
20260510005503 59 313 2.0 8.0 0.00 0.00 0.00 18 1032.4
20260510005003 59 320 1.0 6.0 0.00 0.00 0.00 19 1032.4
20260510004503 59 317 1.0 6.0 0.00 0.00 0.00 19 1032.3
20260510004003 59 302 2.0 11.0 0.00 0.00 0.00 19 1032.3
20260510003503 59 301 2.0 11.0 0.00 0.00 0.00 19 1032.3
20260510003220 60 313 2.0 11.0 0.00 0.00 0.00 18 1032.3
20260510002718 60 355 2.0 8.0 0.00 0.00 0.00 18 1032.2
20260510002003 60 299 5.0 11.0 0.00 0.00 0.00 18 1032.2
20260510001504 60 286 5.0 10.0 0.00 0.00 0.00 17 1032.2
20260510001217 60 273 4.0 10.0 0.00 0.00 0.00 17 1032.2
20260510000503 60 287 4.0 10.0 0.00 0.00 0.00 16 1032.1
20260510000004 60 286 5.0 20.0 0.00 0.00 0.00 17 1032.1
20260509235503 60 293 7.0 20.0 0.00 0.00 0.00 17 1032.0
20260509235003 60 297 9.0 19.0 0.00 0.00 0.00 15 1031.9
20260509234503 60 299 9.0 21.0 0.00 0.00 0.00 16 1031.9
20260509234003 61 298 8.0 21.0 0.00 0.00 0.00 16 1031.9
20260509233717 61 298 8.0 21.0 0.00 0.00 0.00 16 1031.9
20260509233003 61 282 7.0 17.0 0.00 0.00 0.00 18 1032.0
20260509232503 61 267 5.0 11.0 0.00 0.00 0.00 16 1031.9
20260509232003 61 284 8.0 27.0 0.00 0.00 0.00 18 1031.8
20260509231503 61 290 10.0 27.0 0.00 0.00 0.00 17 1032.0
20260509231003 61 302 7.0 19.0 0.00 0.00 0.00 17 1031.9
20260509230503 61 297 8.0 25.0 0.00 0.00 0.00 17 1031.7
20260509230003 62 274 7.0 25.0 0.00 0.00 0.00 17 1031.2
20260509225721 62 302 6.0 13.0 0.00 0.00 0.00 18 1031.6
20260509225003 62 310 4.0 11.0 0.00 0.00 0.00 17 1031.5
20260509224503 62 303 5.0 13.0 0.00 0.00 0.00 17 1031.4
20260509224003 63 293 5.0 13.0 0.00 0.00 0.00 16 1031.4
20260509223503 63 273 5.0 13.0 0.00 0.00 0.00 16 1031.3
20260509223003 63 259 4.0 13.0 0.00 0.00 0.00 16 1031.4
20260509222503 63 260 4.0 10.0 0.00 0.00 0.00 17 1031.2
20260509222003 63 284 6.0 15.0 0.00 0.00 0.00 16 1031.3
20260509221503 63 303 9.0 22.0 0.00 0.00 0.00 15 1031.3
20260509221218 63 296 9.0 22.0 0.00 0.00 0.00 15 1031.3
20260509220503 64 264 5.0 14.0 0.00 0.00 0.00 16 1031.4
20260509220004 65 295 5.0 13.0 0.00 0.00 0.00 16 1031.2
20260509215503 64 300 5.0 13.0 0.00 0.00 0.00 16 1031.4
20260509215220 64 298 6.0 13.0 0.00 0.00 0.00 15 1031.4
20260509214503 65 301 8.0 19.0 0.00 0.00 0.00 17 1031.7
20260509214003 65 276 8.0 18.0 0.00 0.00 0.00 18 1031.6
20260509213503 64 263 7.0 16.0 0.00 0.00 0.00 15 1031.6
20260509213003 64 259 7.0 23.0 0.00 0.00 0.00 14 1031.7
20260509212503 64 267 6.0 23.0 0.00 0.00 0.00 16 1031.6
20260509212003 64 293 6.0 19.0 0.00 0.00 0.00 16 1031.5
20260509211503 64 305 7.0 19.0 0.00 0.00 0.00 16 1031.7
20260509211003 64 300 8.0 27.0 0.00 0.00 0.00 16 1031.9
20260509210503 64 283 7.0 27.0 0.00 0.00 0.00 16 1031.8
20260509210004 64 303 6.0 15.0 0.00 0.00 0.00 17 1031.7
20260509205718 64 309 8.0 17.0 0.00 0.00 0.00 16 1031.9
20260509205220 64 312 8.0 17.0 0.00 0.00 0.00 16 1031.9
20260509204503 64 304 6.0 16.0 0.00 0.00 0.00 16 1032.0
20260509204003 64 262 4.0 14.0 0.00 0.00 0.00 18 1031.9
20260509203719 63 253 4.0 13.0 0.00 0.00 0.00 17 1032.0
20260509203003 64 289 7.0 15.0 0.00 0.00 0.00 17 1032.3
20260509202503 64 288 7.0 22.0 0.00 0.00 0.00 17 1032.2
20260509202003 63 283 6.0 22.0 0.00 0.00 0.00 17 1032.1
20260509201503 63 303 6.0 14.0 0.00 0.00 0.00 16 1032.2
20260509201003 63 295 6.0 16.0 0.00 0.00 0.00 20 1032.2
20260509200717 62 297 6.0 16.0 0.00 0.00 0.00 22 1032.4
20260509200220 62 273 4.0 13.0 0.00 0.00 0.00 20 1032.4
20260509195503 62 260 5.0 15.0 0.00 0.00 0.00 20 1032.4
20260509195221 62 258 6.0 15.0 0.00 0.00 0.00 21 1032.5
20260509194503 61 254 6.0 15.0 0.00 0.00 0.00 21 1032.6
20260509194003 62 262 6.0 15.0 0.00 0.00 0.00 21 1032.6
20260509193503 62 276 6.0 15.0 0.00 0.00 0.00 23 1032.6
20260509193003 62 276 6.0 15.0 0.00 0.00 0.00 22 1032.7
20260509192721 62 281 6.0 18.0 0.00 0.00 0.00 23 1032.6
20260509192003 61 286 6.0 18.0 0.00 0.00 0.00 22 1033.0
20260509191503 60 302 5.0 16.0 0.00 0.00 0.00 25 1032.9
20260509191003 60 294 6.0 17.0 0.00 0.00 0.00 24 1032.9
20260509190718 60 277 6.0 17.0 0.00 0.00 0.00 24 1032.9
20260509190004 61 266 6.0 17.0 0.00 0.00 0.00 25 1032.9
20260509185719 60 270 6.0 17.0 0.00 0.00 0.00 23 1032.9
20260509185003 60 311 8.0 19.0 0.00 0.00 0.00 22 1033.1
20260509184503 60 315 10.0 19.0 0.00 0.00 0.00 23 1032.9
20260509184003 60 286 8.0 17.0 0.00 0.00 0.00 24 1033.2
20260509183503 60 258 5.0 14.0 0.00 0.00 0.00 25 1033.2
20260509183003 60 287 6.0 16.0 0.00 0.00 0.00 27 1033.2
20260509182717 59 284 7.0 16.0 0.00 0.00 0.00 26 1033.2
20260509182003 59 250 5.0 16.0 0.00 0.00 0.00 25 1033.3
20260509181718 59 244 4.0 11.0 0.00 0.00 0.00 26 1033.3
20260509181003 60 276 5.0 11.0 0.00 0.00 0.00 26 1033.2
20260509180503 60 305 4.0 11.0 0.00 0.00 0.00 26 1033.4
20260509180004 60 302 4.0 11.0 0.00 0.00 0.00 26 1033.3
20260509175503 60 299 5.0 12.0 0.00 0.00 0.00 27 1033.3
20260509175217 59 300 5.0 12.0 0.00 0.00 0.00 27 1033.3
20260509174503 59 306 4.0 13.0 0.00 0.00 0.00 26 1033.4
20260509174003 59 292 6.0 13.0 0.00 0.00 0.00 27 1033.3
20260509173504 59 292 5.0 12.0 0.00 0.00 0.00 26 1033.5
20260509173219 59 302 5.0 12.0 0.00 0.00 0.00 27 1033.5
20260509172503 58 300 4.0 11.0 0.00 0.00 0.00 27 1033.4
20260509172003 58 311 6.0 13.0 0.00 0.00 0.00 26 1033.5
20260509171503 58 313 6.0 13.0 0.00 0.00 0.00 27 1033.5
20260509171003 58 298 4.0 13.0 0.00 0.00 0.00 29 1033.6
20260509170503 57 243 4.0 9.0 0.00 0.00 0.00 28 1033.6
20260509170004 56 258 5.0 10.0 0.00 0.00 0.00 30 1033.6
20260509165503 56 252 6.0 12.0 0.00 0.00 0.00 29 1033.7
20260509165004 56 248 6.0 12.0 0.00 0.00 0.00 30 1033.6
20260509164503 56 267 5.0 11.0 0.00 0.00 0.00 31 1033.6
20260509164003 56 294 5.0 10.0 0.00 0.00 0.00 32 1033.6
20260509163717 56 292 5.0 10.0 0.00 0.00 0.00 31 1033.7
20260509163003 56 247 4.0 9.0 0.00 0.00 0.00 31 1033.6
20260509162503 56 265 3.0 9.0 0.00 0.00 0.00 32 1033.6
20260509162003 55 313 3.0 11.0 0.00 0.00 0.00 31 1033.6
20260509161504 55 309 4.0 11.0 0.00 0.00 0.00 31 1033.6
20260509161003 55 294 3.0 8.0 0.00 0.00 0.00 30 1033.7
20260509160720 55 293 3.0 9.0 0.00 0.00 0.00 32 1033.6
20260509160003 54 298 3.0 9.0 0.00 0.00 0.00 34 1033.7
20260509155503 54 298 5.0 11.0 0.00 0.00 0.00 32 1033.8
20260509155003 54 306 4.0 13.0 0.00 0.00 0.00 36 1033.7
20260509154716 54 312 4.0 13.0 0.00 0.00 0.00 34 1033.9
20260509154220 53 290 3.0 12.0 0.00 0.00 0.00 36 1033.7
20260509153503 53 298 5.0 12.0 0.00 0.00 0.00 37 1033.7
20260509153221 53 289 4.0 11.0 0.00 0.00 0.00 35 1033.9
20260509152503 53 272 3.0 7.0 0.00 0.00 0.00 39 1033.8
20260509152221 53 283 3.0 10.0 0.00 0.00 0.00 39 1033.8
20260509151503 52 302 4.0 10.0 0.00 0.00 0.00 39 1033.7
20260509151003 52 310 3.0 11.0 0.00 0.00 0.00 40 1033.8
20260509150503 51 294 2.0 11.0 0.00 0.00 0.00 39 1033.7
20260509150003 51 299 2.0 8.0 0.00 0.00 0.00 40 1033.7
20260509145503 50 316 3.0 8.0 0.00 0.00 0.00 40 1033.7
20260509145003 50 277 3.0 7.0 0.00 0.00 0.00 42 1033.7
20260509144503 50 273 3.0 9.0 0.00 0.00 0.00 41 1033.6
20260509144003 50 297 3.0 9.0 0.00 0.00 0.00 41 1033.6
20260509143503 50 278 4.0 9.0 0.00 0.00 0.00 42 1033.6
20260509143004 49 275 4.0 9.0 0.00 0.00 0.00 41 1033.6
20260509142719 49 275 3.0 9.0 0.00 0.00 0.00 42 1033.6
20260509142003 48 269 2.0 6.0 0.00 0.00 0.00 43 1033.6
20260509141503 48 303 3.0 8.0 0.00 0.00 0.00 43 1033.6
20260509141218 48 313 4.0 12.0 0.00 0.00 0.00 44 1033.7
20260509140503 47 306 3.0 12.0 0.00 0.00 0.00 45 1033.7
20260509140004 47 298 3.0 9.0 0.00 0.00 0.00 45 1033.7
20260509135503 46 325 2.0 5.0 0.00 0.00 0.00 47 1033.7
20260509135220 46 320 2.0 5.0 0.00 0.00 0.00 47 1033.7
20260509134503 46 320 2.0 5.0 0.00 0.00 0.00 48 1033.7
20260509134003 46 322 2.0 5.0 0.00 0.00 0.00 47 1033.7
20260509133503 47 323 3.0 9.0 0.00 0.00 0.00 47 1033.6
20260509133003 47 327 3.0 9.0 0.00 0.00 0.00 46 1033.5
20260509132503 47 320 3.0 9.0 0.00 0.00 0.00 46 1033.4
20260509132003 48 313 3.0 9.0 0.00 0.00 0.00 45 1033.5
20260509131503 48 316 3.0 9.0 0.00 0.00 0.00 45 1033.5
20260509131003 48 316 4.0 8.0 0.00 0.00 0.00 45 1033.3
20260509130503 48 319 5.0 11.0 0.00 0.00 0.00 46 1033.3
20260509130003 47 319 4.0 11.0 0.00 0.00 0.00 44 1033.3
20260509125503 47 313 3.0 8.0 0.00 0.00 0.00 45 1033.2
20260509125003 47 317 3.0 8.0 0.00 0.00 0.00 47 1033.1
20260509124503 46 319 4.0 9.0 0.00 0.00 0.00 46 1033.0
20260509124003 46 320 5.0 9.0 0.00 0.00 0.00 47 1032.9
20260509123503 46 321 5.0 10.0 0.00 0.00 0.00 48 1032.9
20260509123003 46 319 5.0 10.0 0.00 0.00 0.00 49 1032.9
20260509122503 45 319 4.0 8.0 0.00 0.00 0.00 50 1032.8
20260509122003 45 320 4.0 8.0 0.00 0.00 0.00 50 1032.8
20260509121503 45 322 4.0 8.0 0.00 0.00 0.00 50 1032.7
20260509121003 45 323 4.0 9.0 0.00 0.00 0.00 50 1032.6
20260509120717 45 321 4.0 9.0 0.00 0.00 0.00 50 1032.6
20260509120003 46 322 4.0 9.0 0.00 0.00 0.00 49 1032.5
20260509115718 46 320 5.0 11.0 0.00 0.00 0.00 48 1032.4
20260509115003 46 316 6.0 13.0 0.00 0.00 0.00 48 1032.4
20260509114503 45 319 5.0 12.0 0.00 0.00 0.00 48 1032.2
20260509114003 45 322 4.0 8.0 0.00 0.00 0.00 48 1032.1
20260509113720 45 323 4.0 8.0 0.00 0.00 0.00 49 1032.1
20260509113003 45 321 5.0 8.0 0.00 0.00 0.00 50 1032.1
20260509112503 45 321 5.0 11.0 0.00 0.00 0.00 51 1032.1
20260509112003 45 319 5.0 11.0 0.00 0.00 0.00 51 1032.1
20260509111717 44 320 5.0 11.0 0.00 0.00 0.00 51 1032.1
20260509111003 44 327 4.0 8.0 0.00 0.00 0.00 52 1032.1
20260509110503 44 325 3.0 8.0 0.00 0.00 0.00 52 1032.0
20260509110003 44 326 4.0 8.0 0.00 0.00 0.00 52 1032.1
20260509105503 44 324 4.0 7.0 0.00 0.00 0.00 53 1032.1
20260509105003 44 320 5.0 9.0 0.00 0.00 0.00 54 1032.1
20260509104503 42 323 4.0 9.0 0.00 0.00 0.00 58 1032.1
20260509104003 40 328 2.0 6.0 0.00 0.00 0.00 63 1032.1
20260509103503 38 328 1.0 3.0 0.00 0.00 0.00 67 1032.1
20260509103003 38 332 1.0 3.0 0.00 0.00 0.00 69 1031.9
20260509102503 38 352 0.0 2.0 0.00 0.00 0.00 71 1032.0
20260509102219 39 360 0.0 2.0 0.00 0.00 0.00 70 1032.0
20260509101503 39 358 0.0 2.0 0.00 0.00 0.00 69 1032.0
20260509101003 40 348 1.0 2.0 0.00 0.00 0.00 68 1032.0
20260509100503 40 346 0.0 2.0 0.00 0.00 0.00 69 1032.0
20260509100004 40 344 0.0 1.0 0.00 0.00 0.00 69 1031.9
20260509095503 40 344 0.0 1.0 0.00 0.00 0.00 71 1031.9
20260509095217 40 344 0.0 1.0 0.00 0.00 0.00 71 1031.9
20260509094503 39 347 1.0 2.0 0.00 0.00 0.00 71 1031.8
20260509094003 39 358 1.0 2.0 0.00 0.00 0.00 71 1031.9
20260509093721 39 14 1.0 2.0 0.00 0.00 0.00 71 1031.8
20260509093003 39 25 0.0 2.0 0.00 0.00 0.00 71 1031.7
20260509092503 39 21 0.0 1.0 0.00 0.00 0.00 71 1031.7
20260509092003 39 337 0.0 2.0 0.00 0.00 0.00 72 1031.8
20260509091503 38 326 0.0 2.0 0.00 0.00 0.00 72 1031.7
20260509091221 38 323 0.0 1.0 0.00 0.00 0.00 72 1031.8
20260509090503 39 322 0.0 3.0 0.00 0.00 0.00 73 1031.8
20260509090003 39 321 0.0 3.0 0.00 0.00 0.00 72 1031.8
20260509085503 39 321 0.0 1.0 0.00 0.00 0.00 72 1031.9
20260509085003 39 331 0.0 3.0 0.00 0.00 0.00 72 1032.0
20260509084721 39 331 1.0 3.0 0.00 0.00 0.00 71 1032.1
20260509084003 39 333 0.0 1.0 0.00 0.00 0.00 72 1032.1
20260509083503 39 329 0.0 1.0 0.00 0.00 0.00 72 1032.1
20260509083003 39 327 0.0 1.0 0.00 0.00 0.00 72 1032.2
20260509082503 39 327 0.0 1.0 0.00 0.00 0.00 73 1032.1
20260509082221 39 327 0.0 1.0 0.00 0.00 0.00 73 1032.2
20260509081719 38 327 0.0 1.0 0.00 0.00 0.00 74 1032.1
20260509081217 39 327 0.0 1.0 0.00 0.00 0.00 73 1032.2
20260509080503 39 324 0.0 3.0 0.00 0.00 0.00 73 1032.3
20260509080003 39 323 1.0 3.0 0.00 0.00 0.00 72 1032.4
20260509075503 39 326 1.0 4.0 0.00 0.00 0.00 72 1032.5
20260509075219 39 342 1.0 4.0 0.00 0.00 0.00 72 1032.5
20260509074503 40 2 1.0 3.0 0.00 0.00 0.00 71 1032.5
20260509074004 40 319 0.0 1.0 0.00 0.00 0.00 71 1032.6
20260509073503 40 319 0.0 1.0 0.00 0.00 0.00 70 1032.8
20260509073003 40 319 0.0 1.0 0.00 0.00 0.00 70 1032.8
20260509072503 40 319 0.0 1.0 0.00 0.00 0.00 70 1032.9
20260509072003 41 320 0.0 1.0 0.00 0.00 0.00 69 1032.9
20260509071503 41 320 0.0 1.0 0.00 0.00 0.00 69 1032.9
20260509071003 41 320 0.0 1.0 0.00 0.00 0.00 68 1033.1
20260509070503 41 320 0.0 2.0 0.00 0.00 0.00 68 1033.2
20260509070003 42 320 0.0 2.0 0.00 0.00 0.00 68 1033.3
20260509065503 42 320 0.0 2.0 0.00 0.00 0.00 67 1033.4
20260509065003 42 323 1.0 3.0 0.00 0.00 0.00 67 1033.5
20260509064503 42 326 1.0 3.0 0.00 0.00 0.00 67 1033.5
20260509064003 42 326 1.0 4.0 0.00 0.00 0.00 66 1033.5
20260509063503 42 333 1.0 4.0 0.00 0.00 0.00 66 1033.5
20260509063003 42 341 1.0 4.0 0.00 0.00 0.00 66 1033.6
20260509062503 42 343 1.0 3.0 0.00 0.00 0.00 66 1033.6
20260509062217 42 332 0.0 2.0 0.00 0.00 0.00 66 1033.6
20260509061504 42 328 1.0 3.0 0.00 0.00 0.00 65 1033.7
20260509061218 43 328 1.0 3.0 0.00 0.00 0.00 65 1033.8
20260509060503 43 329 2.0 8.0 0.00 0.00 0.00 65 1033.9
20260509060004 43 323 1.0 8.0 0.00 0.00 0.00 65 1033.9
20260509055503 43 319 1.0 3.0 0.00 0.00 0.00 65 1033.9
20260509055003 43 329 1.0 4.0 0.00 0.00 0.00 65 1034.0
20260509054503 43 328 1.0 4.0 0.00 0.00 0.00 65 1033.9
20260509054003 43 326 1.0 4.0 0.00 0.00 0.00 65 1034.0
20260509053503 43 325 1.0 4.0 0.00 0.00 0.00 65 1034.0
20260509053003 43 325 2.0 4.0 0.00 0.00 0.00 65 1034.0
20260509052503 43 325 1.0 3.0 0.00 0.00 0.00 65 1034.1
20260509052004 43 322 1.0 2.0 0.00 0.00 0.00 65 1034.1
20260509051721 43 321 1.0 2.0 0.00 0.00 0.00 64 1034.1
20260509051003 44 322 0.0 2.0 0.00 0.00 0.00 64 1034.1
20260509050503 44 331 0.0 2.0 0.00 0.00 0.00 64 1034.1
20260509050219 44 337 0.0 3.0 0.00 0.00 0.00 63 1034.1
20260509045503 44 346 0.0 3.0 0.00 0.00 0.00 62 1034.1
20260509045003 44 347 0.0 2.0 0.00 0.00 0.00 63 1034.1
20260509044503 44 335 1.0 5.0 0.00 0.00 0.00 63 1034.0
20260509044003 44 333 2.0 5.0 0.00 0.00 0.00 63 1034.1
20260509043503 44 340 1.0 5.0 0.00 0.00 0.00 63 1034.2
20260509043003 44 342 1.0 3.0 0.00 0.00 0.00 64 1034.1
20260509042720 44 333 1.0 3.0 0.00 0.00 0.00 64 1034.3
20260509042004 44 342 0.0 1.0 0.00 0.00 0.00 63 1034.2
20260509041503 44 342 0.0 2.0 0.00 0.00 0.00 63 1034.2
20260509041003 45 340 0.0 2.0 0.00 0.00 0.00 62 1034.1
20260509040503 45 338 0.0 1.0 0.00 0.00 0.00 63 1034.1
20260509040003 45 340 0.0 2.0 0.00 0.00 0.00 63 1034.2
20260509035718 45 346 0.0 2.0 0.00 0.00 0.00 63 1034.2
20260509035003 45 77 0.0 2.0 0.00 0.00 0.00 63 1034.1
20260509034503 45 46 1.0 2.0 0.00 0.00 0.00 63 1034.0
20260509034003 45 18 0.0 2.0 0.00 0.00 0.00 64 1034.0
20260509033720 45 16 0.0 2.0 0.00 0.00 0.00 64 1034.0
20260509033003 45 35 0.0 1.0 0.00 0.00 0.00 64 1033.9
20260509032721 45 34 0.0 1.0 0.00 0.00 0.00 64 1033.9
20260509032003 45 32 0.0 1.0 0.00 0.00 0.00 65 1033.9
20260509031504 45 32 0.0 2.0 0.00 0.00 0.00 64 1033.8
20260509031003 46 31 0.0 2.0 0.00 0.00 0.00 64 1033.8
20260509030503 46 27 0.0 1.0 0.00 0.00 0.00 64 1033.7
20260509030221 46 31 0.0 1.0 0.00 0.00 0.00 64 1033.7
20260509025503 46 53 0.0 1.0 0.00 0.00 0.00 64 1033.5
20260509025003 46 39 0.0 2.0 0.00 0.00 0.00 64 1033.4
20260509024720 46 35 0.0 2.0 0.00 0.00 0.00 63 1033.4
20260509024003 47 355 0.0 1.0 0.00 0.00 0.00 64 1033.3
20260509023503 47 355 0.0 1.0 0.00 0.00 0.00 62 1033.3
20260509023003 47 354 0.0 2.0 0.00 0.00 0.00 62 1033.3
20260509022503 48 353 0.0 2.0 0.00 0.00 0.00 62 1033.1
20260509022003 48 350 0.0 1.0 0.00 0.00 0.00 62 1033.0
20260509021717 48 349 0.0 1.0 0.00 0.00 0.00 61 1033.0